• Em Portugal
  • Lista de países
  • Para 7 dias
  • Temperatura da água
  • Mapas de satélite
  • Mapa do tempo
  • Widgets de tempo
  • user-avatar
    Iniciar Sessão

    Previsão horária em Lipovec

    Hoje, 24 Setembro, Segunda-feira

    Tempo Temperatura Precipitação Vento Pressão Humidade
    00:00 +12°C° 0 mm 5 m/s 737 mmHg 58%
    01:00 +11°C° 0 mm 6 m/s 737 mmHg 57%
    02:00 +12°C° 0 mm 5 m/s 735 mmHg 59%
    03:00 +11°C° 0 mm 6 m/s 734 mmHg 62%
    04:00 +12°C° 0 mm 8 m/s 734 mmHg 64%
    05:00 +12°C° 0 mm 9 m/s 733 mmHg 67%
    06:00 +13°C° 0 mm 9 m/s 733 mmHg 70%
    07:00 +13°C° 0 mm 9 m/s 732 mmHg 73%
    08:00 +15°C° 0 mm 9 m/s 732 mmHg 77%
    09:00 +15°C° 0.6 mm 8 m/s 732 mmHg 80%
    10:00 +15°C° 0.6 mm 8 m/s 732 mmHg 83%
    11:00 +15°C° 0.6 mm 7 m/s 732 mmHg 86%
    12:00 +13°C° 0.2 mm 8 m/s 733 mmHg 82%
    13:00 +12°C° 0.2 mm 8 m/s 733 mmHg 78%
    14:00 +11°C° 0.2 mm 8 m/s 734 mmHg 75%
    15:00 +10°C° 0.1 mm 8 m/s 734 mmHg 73%
    16:00 +10°C° 0.1 mm 8 m/s 735 mmHg 72%
    17:00 +9°C° 0.1 mm 7 m/s 736 mmHg 70%
    18:00 +9°C° 0 mm 7 m/s 736 mmHg 71%
    19:00 +8°C° 0 mm 7 m/s 736 mmHg 71%
    20:00 +8°C° 0 mm 7 m/s 737 mmHg 71%
    21:00 +7°C° 0 mm 6 m/s 737 mmHg 72%
    22:00 +7°C° 0 mm 6 m/s 737 mmHg 73%
    23:00 +5°C° 0 mm 6 m/s 738 mmHg 73%

    Amanhã, 25 Setembro, Terça-feira

    Tempo Temperatura Precipitação Vento Pressão Humidade
    00:00 +5°C° 0 mm 6 m/s 738 mmHg 74%
    01:00 +5°C° 0 mm 6 m/s 738 mmHg 75%
    02:00 +4°C° 0 mm 6 m/s 738 mmHg 76%
    03:00 +5°C° 0 mm 6 m/s 738 mmHg 77%
    04:00 +5°C° 0 mm 6 m/s 738 mmHg 78%
    05:00 +5°C° 0 mm 6 m/s 739 mmHg 79%
    06:00 +5°C° 0.1 mm 7 m/s 739 mmHg 76%
    07:00 +5°C° 0.1 mm 8 m/s 739 mmHg 74%
    08:00 +6°C° 0.1 mm 8 m/s 740 mmHg 71%
    09:00 +6°C° 0.5 mm 8 m/s 741 mmHg 71%
    10:00 +6°C° 0.5 mm 8 m/s 741 mmHg 71%
    11:00 +6°C° 0.5 mm 8 m/s 742 mmHg 71%
    12:00 +7°C° 0.2 mm 8 m/s 742 mmHg 68%
    13:00 +7°C° 0.2 mm 8 m/s 742 mmHg 65%
    14:00 +9°C° 0.2 mm 8 m/s 743 mmHg 62%
    15:00 +9°C° 0 mm 7 m/s 743 mmHg 61%
    16:00 +9°C° 0 mm 6 m/s 744 mmHg 61%
    17:00 +8°C° 0 mm 5 m/s 744 mmHg 61%
    18:00 +7°C° 0 mm 5 m/s 745 mmHg 64%
    19:00 +6°C° 0 mm 5 m/s 745 mmHg 67%
    20:00 +5°C° 0 mm 5 m/s 746 mmHg 71%
    21:00 +5°C° 0 mm 5 m/s 746 mmHg 72%
    22:00 +5°C° 0 mm 5 m/s 747 mmHg 74%
    23:00 +5°C° 0 mm 5 m/s 747 mmHg 75%

    Depois de amanhã, 26 Setembro, Quarta-feira

    Tempo Temperatura Precipitação Vento Pressão Humidade
    00:00 +3°C° 0 mm 5 m/s 748 mmHg 77%
    01:00 +3°C° 0 mm 5 m/s 748 mmHg 78%
    02:00 +3°C° 0 mm 5 m/s 748 mmHg 80%
    03:00 +2°C° 0 mm 5 m/s 749 mmHg 80%
    04:00 +2°C° 0 mm 5 m/s 749 mmHg 81%
    05:00 +2°C° 0 mm 5 m/s 749 mmHg 82%
    06:00 +2°C° 0 mm 5 m/s 750 mmHg 77%
    07:00 +3°C° 0 mm 5 m/s 750 mmHg 73%
    08:00 +4°C° 0 mm 6 m/s 751 mmHg 68%
    09:00 +5°C° 0 mm 6 m/s 751 mmHg 61%
    10:00 +7°C° 0 mm 6 m/s 751 mmHg 53%
    11:00 +8°C° 0 mm 6 m/s 752 mmHg 46%
    12:00 +9°C° 0 mm 6 m/s 752 mmHg 46%
    13:00 +9°C° 0 mm 5 m/s 751 mmHg 46%
    14:00 +10°C° 0 mm 5 m/s 751 mmHg 46%
    15:00 +10°C° 0 mm 4 m/s 751 mmHg 49%
    16:00 +10°C° 0 mm 3 m/s 751 mmHg 52%
    17:00 +10°C° 0 mm 2 m/s 751 mmHg 55%
    18:00 +9°C° 0 mm 2 m/s 751 mmHg 59%
    19:00 +7°C° 0 mm 2 m/s 751 mmHg 63%
    20:00 +6°C° 0 mm 2 m/s 751 mmHg 67%
    21:00 +6°C° 0 mm 2 m/s 751 mmHg 68%
    22:00 +6°C° 0 mm 2 m/s 750 mmHg 69%
    23:00 +4°C° 0 mm 3 m/s 750 mmHg 69%

    27 Setembro, Quinta-feira

    Tempo Temperatura Precipitação Vento Pressão Humidade
    00:00 +4°C° 0 mm 3 m/s 750 mmHg 70%
    01:00 +4°C° 0 mm 3 m/s 749 mmHg 70%
    02:00 +4°C° 0 mm 3 m/s 749 mmHg 70%
    03:00 +4°C° 0 mm 4 m/s 749 mmHg 69%
    04:00 +5°C° 0 mm 4 m/s 748 mmHg 67%
    05:00 +5°C° 0 mm 5 m/s 748 mmHg 66%
    06:00 +6°C° 0 mm 5 m/s 747 mmHg 63%
    07:00 +7°C° 0 mm 6 m/s 747 mmHg 60%
    08:00 +8°C° 0 mm 7 m/s 747 mmHg 57%
    09:00 +9°C° 0 mm 7 m/s 746 mmHg 54%
    10:00 +10°C° 0 mm 7 m/s 746 mmHg 51%
    11:00 +11°C° 0 mm 7 m/s 746 mmHg 48%
    12:00 +12°C° 0 mm 7 m/s 746 mmHg 48%
    13:00 +14°C° 0 mm 7 m/s 745 mmHg 48%
    14:00 +15°C° 0 mm 7 m/s 745 mmHg 48%
    15:00 +15°C° 0 mm 6 m/s 744 mmHg 53%
    16:00 +15°C° 0 mm 5 m/s 744 mmHg 57%
    17:00 +15°C° 0 mm 4 m/s 744 mmHg 62%
    18:00 +14°C° 0 mm 4 m/s 744 mmHg 67%
    19:00 +13°C° 0 mm 4 m/s 744 mmHg 72%
    20:00 +12°C° 0 mm 4 m/s 744 mmHg 77%
    21:00 +11°C° 0 mm 4 m/s 744 mmHg 79%
    22:00 +11°C° 0 mm 4 m/s 744 mmHg 81%
    23:00 +11°C° 0 mm 4 m/s 744 mmHg 83%

    28 Setembro, Sexta-feira

    Tempo Temperatura Precipitação Vento Pressão Humidade
    00:00 +10°C° 0 mm 4 m/s 744 mmHg 86%
    01:00 +10°C° 0 mm 4 m/s 744 mmHg 88%
    02:00 +10°C° 0 mm 3 m/s 743 mmHg 91%
    03:00 +9°C° 0 mm 3 m/s 743 mmHg 92%
    04:00 +9°C° 0 mm 3 m/s 743 mmHg 93%
    05:00 +9°C° 0 mm 3 m/s 743 mmHg 94%
    06:00 +10°C° 0 mm 3 m/s 743 mmHg 89%
    07:00 +11°C° 0 mm 3 m/s 743 mmHg 85%
    08:00 +12°C° 0 mm 4 m/s 742 mmHg 80%
    09:00 +14°C° 0 mm 4 m/s 742 mmHg 74%
    10:00 +17°C° 0 mm 4 m/s 742 mmHg 67%
    11:00 +19°C° 0 mm 4 m/s 742 mmHg 60%
    12:00 +20°C° 0 mm 4 m/s 742 mmHg 57%
    13:00 +20°C° 0 mm 4 m/s 742 mmHg 55%
    14:00 +21°C° 0 mm 4 m/s 741 mmHg 52%
    15:00 +21°C° 0 mm 4 m/s 741 mmHg 56%
    16:00 +20°C° 0 mm 3 m/s 740 mmHg 60%
    17:00 +19°C° 0 mm 2 m/s 740 mmHg 64%
    18:00 +18°C° 0 mm 2 m/s 740 mmHg 69%
    19:00 +17°C° 0 mm 2 m/s 740 mmHg 74%
    20:00 +16°C° 0 mm 2 m/s 740 mmHg 79%
    21:00 +15°C° 0 mm 2 m/s 740 mmHg 82%
    22:00 +15°C° 0 mm 2 m/s 740 mmHg 84%
    23:00 +14°C° 0 mm 2 m/s 740 mmHg 87%

    29 Setembro, Sábado

    Tempo Temperatura Precipitação Vento Pressão Humidade
    00:00 +14°C° 0 mm 2 m/s 740 mmHg 88%
    01:00 +14°C° 0 mm 1 m/s 740 mmHg 89%
    02:00 +13°C° 0 mm 1 m/s 740 mmHg 90%
    03:00 +13°C° 0 mm 1 m/s 739 mmHg 91%
    04:00 +13°C° 0 mm 1 m/s 739 mmHg 91%
    05:00 +13°C° 0 mm 1 m/s 739 mmHg 92%
    06:00 +13°C° 0 mm 1 m/s 739 mmHg 90%
    07:00 +14°C° 0 mm 1 m/s 739 mmHg 88%
    08:00 +15°C° 0 mm 1 m/s 739 mmHg 85%
    09:00 +14°C° 0.4 mm 2 m/s 740 mmHg 85%
    10:00 +13°C° 0.4 mm 3 m/s 740 mmHg 85%
    11:00 +13°C° 0.4 mm 4 m/s 740 mmHg 86%
    12:00 +10°C° 0.9 mm 5 m/s 740 mmHg 84%
    13:00 +9°C° 0.9 mm 5 m/s 740 mmHg 83%
    14:00 +8°C° 0.9 mm 6 m/s 741 mmHg 82%
    15:00 +8°C° 0.8 mm 6 m/s 741 mmHg 82%
    16:00 +7°C° 0.8 mm 6 m/s 742 mmHg 82%
    17:00 +7°C° 0.8 mm 5 m/s 742 mmHg 82%
    18:00 +6°C° 0.1 mm 5 m/s 743 mmHg 83%
    19:00 +6°C° 0.1 mm 5 m/s 743 mmHg 83%
    20:00 +6°C° 0.1 mm 4 m/s 744 mmHg 83%
    21:00 +5°C° 0 mm 4 m/s 744 mmHg 84%
    22:00 +5°C° 0 mm 4 m/s 745 mmHg 84%
    23:00 +4°C° 0 mm 4 m/s 745 mmHg 85%
    Mostrar mais